Regional Weather Roundup
Issued by NWS

Home | Current Version | Previous Version | Text Only | Print | Product List | Glossary Off
Versions: 1 2 3 4 5 6 7 8 9 10 11 12 13 14 15 16 17 18 19 20 21 22 23 24 25 26 27

000
ASUS43 KDMX 181007
RWRIA

WEATHER ROUNDUP FOR IOWA
NATIONAL WEATHER SERVICE DES MOINES IA
500 AM CDT FRI APR 18 2014

NOTE: "FAIR" INDICATES FEW OR NO CLOUDS BELOW 12,000 FEET WITH NO
SIGNIFICANT WEATHER AND/OR OBSTRUCTIONS TO VISIBILITY.

* - THESE STATIONS ARE NOT NWS STATIONS...THUS NOT UNDER NWS
QUALITY CONTROL.  THEY ALSO DO NOT REPORT WEATHER SUCH
AS PRECIPITATION OR FOG.

IAZ001>003-012>014-020>022-031>034-043>046-181100-
   NORTHWEST IOWA

CITY           SKY/WX    TMP DP  RH WIND       PRES   REMARKS
CARROLL *      CLOUDY    28  27  93 CALM      30.29S FOG
CHEROKEE *     CLEAR     28  27  93 CALM      30.27S
DENISON *      MOCLDY    34  30  86 E6        30.26S WCI  29
LE MARS *      CLEAR     34  28  80 SE14      30.24F WCI  24
ORANGE CITY *  CLEAR     34  27  75 E5        30.25S WCI  30
SHELDON *      CLEAR     30  28  93 E7        30.25S WCI  23
SIOUX CITY     PTCLDY    30  26  85 SE8       30.25S WCI  22
SPENCER        MOCLDY    29  26  89 SE6       30.28S WCI  23
STORM LAKE *   CLEAR     28  28 100 SE10      30.28R FOG     WCI  19
$$

IAZ055>058-069>071-079>083-090>094-181100-
   SOUTHWEST IOWA

CITY           SKY/WX    TMP DP  RH WIND       PRES   REMARKS
ATLANTIC *     PTCLDY    32  28  86 NE5       30.28R WCI  27
AUDUBON *      CLEAR     30  25  80 CALM      30.29S
CLARINDA *     CLEAR     28  28 100 N3        30.29S FOG
COUNCIL BLFS * PTCLDY    34  27  75 SE6       30.25S WCI  29
CRESTON *      CLEAR     32  28  86 E5        30.28S WCI  27
HARLAN  *      CLEAR     32  28  86 CALM      30.31R
LAMONI         CLEAR     31  28  89 NE7       30.28R FOG     WCI  24
RED OAK *      CLEAR     30  27  86 CALM      30.27S
SHENANDOAH *   MOCLDY    30  28  93 NE5       30.28S WCI  25
$$

IAZ047>049-059>061-072>074-084-181100-
   CENTRAL IOWA

CITY           SKY/WX    TMP DP  RH WIND       PRES   REMARKS
AMES           CLEAR     30  27  88 CALM      30.31R FOG
ANKENY *       CLEAR     30  28  93 CALM      30.31R
CHARITON *     CLEAR     32  30  93 E5        30.30S FOG     WCI  27
DES MOINES     CLEAR     35  29  78 E5        30.31R WCI  31
GRINNELL*      CLEAR     30  28  93 NE7       30.31R WCI  23
KNOXVILLE *    CLEAR     34  30  86 E5        30.30S WCI  30
MARSHALLTOWN   CLEAR     28  26  92 CALM      30.31R FOG
NEWTON *       CLEAR     32  30  93 NE9       30.31S WCI  24
PELLA *        CLEAR     32  28  86 CALM      30.32S
PERRY *          N/A     30  27  86 E5        30.31R FOG     WCI  25
$$

IAZ004>006-015-016-023>025-035-036-181100-
   NORTH CENTRAL IOWA

CITY           SKY/WX    TMP DP  RH WIND       PRES   REMARKS
ALGONA *       MOCLDY    32  30  93 SE6       30.30F WCI  26
CLARION *      CLEAR     28  28 100 SE5       30.31R WCI  23
ESTHERVILLE    CLOUDY    30  30 100 SE6       30.28S FOG     WCI  24
FORT DODGE *   CLEAR     28  25  86 SE5       30.31R WCI  23
MASON CITY     FOG       24  24 100 E5        30.32S VSB 1/4 WCI  18
FOREST CITY *  MOCLDY    27  27 100 CALM      30.31R FOG
IOWA FALLS *     N/A     30  27  86 CALM      30.32R
$$

IAZ007>011-017>019-026>030-037>042-050>054-066-181100-
   NORTHEAST IOWA

CITY           SKY/WX    TMP DP  RH WIND       PRES   REMARKS
CEDAR RAPIDS   CLEAR     29  28  96 CALM      30.30R
CHARLES CITY * CLEAR     28  27  93 NE6       30.33R FOG     WCI  22
CLINTON *      CLEAR     28  25  86 N8        30.32S WCI  20
DECORAH *      CLEAR     27  27 100 CALM      30.32R FOG
DUBUQUE        CLEAR     29  27  92 N7        30.29S WCI  22
MONTICELLO *   CLEAR     28  28 100 N3        30.31S FOG
OELWEIN *      CLEAR    N/A N/A N/A NE5       30.33R
WATERLOO       PTCLDY    27  25  92 CALM      30.32R FOG
$$

IAZ064-065-067-068-078-181100-
   EAST CENTRAL IOWA

CITY           SKY/WX    TMP DP  RH WIND       PRES   REMARKS
DAVENPORT      CLEAR     31  28  89 N5        30.32R FOG     WCI  26
IOWA CITY      CLEAR     34  29  82 N5        30.33R WCI  30
MT. PLEASANT * CLEAR     32  30  93 N7        30.31S WCI  26
MUSCATINE *    CLEAR     30  28  93 NW3       30.32S
QUAD CITIES    CLEAR     33  29  85 CALM      30.31R
$$

IAZ062-063-075>077-085>089-095>099-181100-
   SOUTHEAST IOWA

CITY           SKY/WX    TMP DP  RH WIND       PRES   REMARKS
BURLINGTON     CLEAR     36  32  85 N5        30.30R WCI  32
FAIRFIELD *    CLEAR     28  27  93 NE5       30.32R WCI  23
FORT MADISON * CLEAR     32  30  93 N5        30.31S WCI  27
KEOKUK *       CLEAR     36  32  87 N7        30.30R WCI  30
OSKALOOSA *      N/A     28  28 100 CALM      30.32R
CENTERVILLE *  CLEAR     34  32  93 NE6       30.31S WCI  29
OTTUMWA        CLEAR     30  27  88 E5        30.31R WCI  25
WASHINGTON *   CLEAR     30  30 100 N5        30.32R FOG     WCI  25
$$

ABBREVIATIONS USED IN REMARKS
   TC - TEMPERATURES IN CELSIUS
  WCI - WIND CHILL INDEX
   HX - HEAT INDEX
  VSB - VISIBILITY
$$




USA.gov is the U.S. government's official web portal to all federal, state and local government web resources and services.